Weather in Buguruslan

Russia / Orenburg Oblast     53°39′08″N   52°25′57″E
temp.,
°C
wind,
m/s
gust,
m/s
humid.,
%
clouds,
%
prec.,
mm/h
press.,
hPa
HPBL,
m
27 february, sat
sat2723:00−16sse81492100 0.1 1014506
02:00−14sse91694100 0.9 1008596
05:00−12sse81594100 6.8 1004690
08:00−10sse71393100 1.6 1001456
11:00−7sse5895100 2.6 1000368
14:00−3sse4597100 0.6 999273
17:000sw4899100 1.8 998422
20:000sw4799100 1.1 997359
28 february, sun
sun2823:000sw3599100 2.4 997252
02:00−1wsw2599100 0.7 997211
05:00−1w2499100 1.6 998156
08:00−7nnw589492 0.2 1000251
11:00−11nnw479387 0.3 1002305
14:00−11nnw579294 0.1 1005393
17:00−11nnw579195 0.3 1007478
20:00−13nnw489496 0.2 1010342
1 march, mon
mon123:00−15nnw379591 0.3 1012226
02:00−17nnw359591 0.1 1014134
05:00−20nnw239588 0.1 101626
08:00−22nnw239547 0.0 101824
11:00−19nnw249456 0.0 1020145
14:00−15nnw349058 0.0 1021319
17:00−14nnw359170 0.0 1021374
20:00−19nnw229731 0.0 102220
2 march, tue
tue223:00−22nw129915 0.0 102320
02:00−24w111000 0.0 102220
05:00−24sw1210015 0.0 102120
08:00−24ssw3310054 0.0 101923
11:00−19s479768 0.0 1017246
14:00−14s6994100 0.0 1014413
17:00−11s71294100 0.6 1011572
20:00−11s61294100 0.7 1008511
3 march, wed
wed323:00−8s61295100 1.4 1005504
02:00−5s51296100 0.8 1002481
05:00−5s4997100 1.2 1000311
08:00−5s3897100 0.4 999239
11:00−4sw359699 0.6 1000243
14:00−2w459599 0.2 1000433
17:00−4nw71094100 0.8 1002515
20:00−6nw61290100 0.6 1003567